Flag for Canada Weather past 2 weeks in Hamilton, Ontario, Canada

Now
61 °F

Passing clouds.


Feels Like: 61 °F
Forecast: 63 / 83 °F
Wind: 2 mph from North

Location: Hamilton Airport

Current Time: Aug 30, 2014 at 12:39:55 AM

Latest Report: Aug 30, 2014 at 12:00 AM


Visibility: 15 mi

Pressure: 30.10 "Hg

Humidity: 94%

Dew point: 59 °F

Location of HamiltonLocation

Historic Weather in Hamilton — Graph

°F

Hamilton temperature yesterday

Maximum temperature yesterday: 75 °F (at 3:00 PM)
Minimum temperature yesterday: 50 °F (at 3:00 AM)
Average temperature yesterday: 62 °F

Past Weeks' High & Low Weather Summary

 TemperatureHumidityPressure
High84 °F (Aug 26, 2:00 PM)100% (Aug 17, 3:00 AM)30.19 "Hg (Aug 17, 3:00 AM)
Low48 °F (Aug 28, 7:00 AM)43% (Aug 15, 4:00 PM)29.82 "Hg (Aug 19, 11:00 PM)
Average65 °F81%30.00 "Hg
* Reported Midnight between Aug 14 and Aug 15 — Aug 29 11:00 PM, Hamilton, Weather by CustomWeather, © 2014

Note: Actual official high and low records may vary slightly from our data, if they occured in-between our weather recording intervals... More about our weather records

Advertising

Hamilton weather history for previous 24 hours

 ConditionsComfort  
Time TempWeatherWind HumidityBarometerVisibility
11:00 PM
Aug 29
63 °FPassing clouds.5 mph88%30.09 "Hg15 mi
10:00 PM63 °FPassing clouds.5 mph88%30.10 "Hg15 mi
9:00 PM63 °FPartly cloudy.6 mph88%30.10 "Hg15 mi
8:00 PM64 °FPartly sunny.6 mph78%30.10 "Hg15 mi
7:00 PM68 °FPartly sunny.8 mph73%30.11 "Hg12 mi
6:00 PM73 °FScattered clouds.6 mph47%30.11 "Hg7 mi
5:00 PM75 °FScattered clouds.8 mph54%30.11 "Hg8 mi
3:00 PM75 °FPartly sunny.7 mph54%30.14 "Hg8 mi
2:00 PM73 °FPartly sunny.8 mph61%30.16 "Hg15 mi
1:00 PM72 °FPartly sunny.5 mph65%30.16 "Hg15 mi
12:00 PM68 °FPartly sunny.7 mph69%30.19 "Hg15 mi
11:00 AM68 °FPartly sunny.7 mph69%30.19 "Hg15 mi
10:00 AM63 °FPartly sunny.8 mph83%30.19 "Hg15 mi
9:00 AM59 °FPartly sunny.6 mph88%30.19 "Hg15 mi
8:00 AM55 °FPartly sunny.5 mph88%30.19 "Hg15 mi
7:00 AM54 °FPassing clouds.5 mph88%30.18 "Hg15 mi
6:00 AM52 °FPassing clouds.7 mph82%30.16 "Hg15 mi
5:00 AM54 °FPassing clouds.6 mph82%30.15 "Hg15 mi
4:00 AM52 °FPassing clouds.6 mph88%30.15 "Hg15 mi
3:00 AM50 °FPassing clouds.2 mph88%30.16 "Hg15 mi
2:00 AM52 °FPassing clouds.No wind82%30.16 "Hg15 mi
1:00 AM55 °FPassing clouds.6 mph72%30.16 "Hg15 mi
12:00 AM55 °FPassing clouds.8 mph72%30.15 "Hg15 mi
Weather by CustomWeather, © 2014

See weather overviewHow to use our weather pages